Hourly Data Report for October 17, 2016

All times are specified in Local Standard Time (LST). Add 1 hour to adjust for Daylight Saving Time where and when it is observed.

BATHURST A
NEW BRUNSWICK

47°37'47.000" N
65°44'20.000" W
58.80 m
8100505
71574
ZBF

Download Data

Hourly Data (October 2016)
Hourly Data Report for October 17, 2016
Temp Definition
°C
Dew Point Temp Definition
°C
Rel Hum Definition
%
Wind Dir Definition
10's deg

Wind Spd Definition
km/h
Visibility Definition
km
Stn Press Definition
kPa
Hmdx Definition


Wind Chill Definition


Weather Definition


TIME
00:00 Legend Double Dagger 9.6 9.5 99 9 3 6.4 99.82     Rain Showers,Fog
01:00 Legend Double Dagger 9.6 9.5 99 2 3 16.1 99.80     LegendNANA
02:00 Legend Double Dagger 9.0 8.9 99 9 4 12.9 99.81     Mostly Cloudy
03:00 Legend Double Dagger 9.3 9.0 98 36 2 16.1 99.81     LegendNANA
04:00 Legend Double Dagger 7.6 7.5 99 36 3 0.6 99.80     Fog
05:00 Legend Double Dagger 11.1 10.0 93 27 8 16.1 99.85     Mainly Clear
06:00 Legend Double Dagger 9.6 9.0 96 27 5 12.9 99.91     LegendNANA
07:00 Legend Double Dagger 11.7 9.5 86 31 7 24.1 99.96     LegendNANA
08:00 Legend Double Dagger 11.5 7.3 75 30 13 24.1 100.03     Mostly Cloudy
09:00 Legend Double Dagger 10.4 5.4 71 32 12 24.1 100.10     LegendNANA
10:00 Legend Double Dagger 10.9 3.5 60 30 20 24.1 100.11     LegendNANA
11:00 Legend Double Dagger 10.8 3.2 59 30 18 24.1 100.07     Mostly Cloudy
12:00 Legend Double Dagger 12.2 3.2 54 28 13 24.1 100.06     LegendNANA
13:00 Legend Double Dagger 12.6 3.3 53 28 18 24.1 100.08     LegendNANA
14:00 Legend Double Dagger 13.1 3.0 50 29 20 24.1 100.07     Mainly Clear
15:00 Legend Double Dagger 13.3 3.2 50 29 16 24.1 100.11     LegendNANA
16:00 Legend Double Dagger 12.6 2.8 51 29 20 24.1 100.17     LegendNANA
17:00 Legend Double Dagger 11.3 2.9 56 30 13 24.1 100.29     Mainly Clear
18:00 Legend Double Dagger 10.2 2.6 59 30 10 24.1 100.35     LegendNANA
19:00 Legend Double Dagger 9.4 2.3 61 30 13 24.1 100.39     LegendNANA
20:00 Legend Double Dagger 9.0 2.1 62 30 12 24.1 100.46     Mainly Clear
21:00 Legend Double Dagger 8.7 2.3 64 35 4 24.1 100.49     LegendNANA
22:00 Legend Double Dagger 7.4 2.3 70 28 10 24.1 100.56     LegendNANA
23:00 Legend Double Dagger 6.2 1.9 74 36 1 24.1 100.61     Clear

Notes on Data Quality.

Legend

  • E = Estimated
  • M = Missing
  • NA = Not Available
  • ‡ = Partner data that is not subject to review by the National Climate Archives
Date modified: